Flag for Germany Weather past 2 weeks in Sundern (Sauerland), North Rhine-Westphalia, Germany

Now
50 °F

Partly sunny.


Feels Like: 44 °F
Forecast: 44 / 65 °F
Wind: 17 mph from Southwest

Location: Dortmund / Wickede

Current Time: May 7, 2015 at 9:43:08 AM

Latest Report: May 7, 2015 at 9:20 AM


Visibility: N/A

Pressure: 30.01 "Hg

Humidity: 76%

Dew point: 43 °F

Location of Sundern (Sauerland)Location

Historic Weather in Sundern (Sauerland) — Graph

°F

Sundern (Sauerland) temperature yesterday

Maximum temperature yesterday: 61 °F (at 12:50 PM)
Minimum temperature yesterday: 48 °F (at 6:20 AM)
Average temperature yesterday: 54 °F

Past Weeks' High & Low Weather Summary

 TemperatureHumidityPressure
High73 °F (May 5, 1:20 PM)94% (Apr 27, 5:20 AM)30.39 "Hg (Apr 27, 5:20 AM)
Low30 °F (Apr 28, 5:20 AM)23% (Apr 24, 3:50 PM)29.42 "Hg (May 5, 5:20 AM)
Average53 °F66%29.85 "Hg
* Reported Apr 22 8:20 AM — May 7 8:20 AM, Sundern (Sauerland), Weather by CustomWeather, © 2015

Note: Actual official high and low records may vary slightly from our data, if they occured in-between our weather recording intervals... More about our weather records

Advertising

Sundern (Sauerland) weather history for previous 24 hours

 ConditionsComfort  
Time TempWeatherWind HumidityBarometerVisibility
8:20 AM
Thu, May 7
50 °FPartly sunny.17 mph71%30.01 "HgN/A
7:50 AM48 °FScattered clouds.20 mph76%30.01 "HgN/A
7:20 AM48 °FScattered clouds.17 mph76%29.98 "HgN/A
6:50 AM48 °FClear.18 mph76%29.98 "Hg10 mi
6:20 AM48 °FPassing clouds.15 mph71%29.98 "HgN/A
5:50 AM48 °FPassing clouds.16 mph71%29.95 "HgN/A
5:20 AM48 °FClear.16 mph71%29.95 "Hg10 mi
10:50 PM
Wed, May 6
52 °FClear.16 mph62%29.89 "Hg10 mi
10:20 PM52 °FPassing clouds.15 mph67%29.89 "HgN/A
9:50 PM52 °FSunny.10 mph72%29.89 "Hg10 mi
9:20 PM52 °FSunny.10 mph72%29.89 "Hg10 mi
8:50 PM50 °FSunny.8 mph76%29.89 "Hg10 mi
8:20 PM52 °FClear.9 mph72%29.89 "HgN/A
7:50 PM50 °FSunny.13 mph76%29.89 "Hg10 mi
7:20 PM52 °FScattered showers. Clear.12 mph67%29.89 "HgN/A
6:50 PM50 °FSprinkles. Partly sunny.15 mph71%29.89 "HgN/A
6:20 PM55 °FScattered showers. Partly sunny.21 mph55%29.86 "HgN/A
5:50 PM54 °FScattered showers. Clear.25 mph63%29.86 "HgN/A
5:20 PM57 °FScattered showers. Clear.23 mph59%29.83 "HgN/A
4:50 PM55 °FScattered showers. Clear.13 mph72%29.83 "HgN/A
4:20 PM50 °FSprinkles. Partly sunny.26 mph76%29.86 "HgN/A
3:56 PM59 °FSprinkles. Broken clouds.21 mph45%29.83 "Hg4 mi
3:50 PM61 °FScattered showers. Clear.18 mph39%29.83 "HgN/A
3:20 PM61 °FSunny.22 mph42%29.83 "Hg10 mi
2:50 PM61 °FPassing clouds.17 mph39%29.83 "HgN/A
2:20 PM59 °FPassing clouds.20 mph45%29.83 "HgN/A
1:50 PM61 °FSunny.23 mph42%29.83 "Hg10 mi
1:20 PM61 °FPassing clouds.18 mph45%29.83 "HgN/A
12:50 PM61 °FSunny.23 mph39%29.86 "Hg10 mi
12:20 PM59 °FPassing clouds.18 mph48%29.86 "HgN/A
11:50 AM59 °FScattered clouds.18 mph45%29.86 "HgN/A
11:20 AM59 °FPassing clouds.20 mph55%29.86 "HgN/A
10:50 AM57 °FPassing clouds.21 mph51%29.86 "HgN/A
10:20 AM57 °FPassing clouds.22 mph51%29.86 "HgN/A
9:50 AM55 °FPassing clouds.17 mph55%29.86 "HgN/A
9:20 AM55 °FPassing clouds.17 mph59%29.86 "HgN/A
Weather by CustomWeather, © 2015

See weather overviewHow to use our weather pages